Regional Weather Roundup
Issued by NWS

Home | Current Version | Previous Version | Graphics & Text | Print | Product List | Glossary On
Versions: 1 2 3 4 5 6 7 8 9 10 11 12 13 14 15 16 17 18 19 20 21 22 23 24 25 26 27 28 29 30 31 32 33 34 35 36 37 38 39 40 41 42 43 44 45 46 47 48 49 50
000
ASUS43 KIND 191909
RWRIN

WEATHER ROUNDUP FOR INDIANA
NATIONAL WEATHER SERVICE INDIANAPOLIS IN
300 PM EDT TUE SEP 19 2017

NOTE: "FAIR" INDICATES FEW OR NO CLOUDS BELOW 12,000 FEET WITH NO
SIGNIFICANT WEATHER AND/OR OBSTRUCTIONS TO VISIBILITY.

* - STATION DOES NOT REPORT WEATHER SUCH AS PRECIPITATION OR FOG.

+ - STATION NOT QUALITY CONTROLLED BY THE NATIONAL WEATHER SERVICE.
    USE DATA WITH CAUTION...ESPECIALLY DEWPOINT AND RELATIVE
    HUMIDITY OBSERVATIONS.

INZ001>003-010>013-019-020-192000-
NORTHWEST INDIANA

CITY           SKY/WX    TMP DP  RH WIND       PRES   REMARKS
GARY /AIRPORT/ MOSUNNY   75  66  73 NE5       29.95F
KNOX *+        CLOUDY    72  64  78 S3        29.93F
LA PORTE +     CLOUDY    71  65  81 NE6       29.94F
MICHIGAN CITY+ CLOUDY    70  66  88 E3        29.94F
MONTICELLO +   CLOUDY    73  66  79 NW5       29.93F
RENSSELAER +   PTSUNNY   73  61  64 NW3       29.93F
VALPARAISO     CLOUDY    76  67  73 NE3       29.93F

$$

LMZ046-743>745-192000-
SOUTHERN LAKE MICHIGAN

STATION/POSITION TIME  TEMP    WIND        PRES    WAVE
                       AIR SEA DIR/SP/G            HT
                 (UTC) (F)     (DEG/KT/KT) (MB)    (FT)
BURNS HARBOR     1840   69      50/ 13/ 14 1014.2F
MICHIGAN CITY    1840   67      50/ 11/ 12   N/A
5NW MICH CITY    1900   68 68   70/  8/ 10   N/A     2

$$

INZ004-005-014>016-021>024-192000-
NORTH CENTRAL INDIANA

CITY           SKY/WX    TMP DP  RH WIND       PRES   REMARKS
GOSHEN         CLOUDY    73  66  78 NE5       29.93F
LOGANSPORT +   MOSUNNY   75  64  69 W7        29.93F
PERU/GRISSOM   MOSUNNY   77  68  74 SW9       29.92F
SOUTH BEND     CLOUDY    71  68  90 N7        29.94F
WARSAW +       CLOUDY    73  64  73 CALM      29.92F

$$

INZ006>009-017-018-025>027-192000-
NORTHEAST INDIANA

CITY           SKY/WX    TMP DP  RH WIND       PRES   REMARKS
AUBURN +       HVY RAIN  68  64  88 W5        29.95S
FORT WAYNE     LGT RAIN  74  69  85 W10       29.92F
HUNTINGTON +   DRIZZLE   71  69  95 W3        29.93F
KENDALLVILLE + DRIZZLE   69  69 100 E6        29.95F

$$

INZ028-029-035-036-043>045-051>053-192000-
WEST CENTRAL INDIANA

CITY           SKY/WX    TMP DP  RH WIND       PRES   REMARKS
CRAWFORDSVL +  MOSUNNY   75  68  78 SW3       29.93F
GREENCASTLE +  MOSUNNY   79  64  61 CALM      29.93F
LAFAYETTE      CLOUDY    77  68  73 W5        29.92F
TERRE HAUTE    MOSUNNY   81  65  58 S8        29.92F

$$

INZ030>032-037>040-046>048-054>057-064-065-192000-
CENTRAL INDIANA

CITY           SKY/WX    TMP DP  RH WIND       PRES   REMARKS
ANDERSON       PTSUNNY   75  66  73 S6        29.95F
CP ATTERBURY + PTSUNNY   79  68  69 W3        29.94F
COLUMBUS       CLOUDY    77  66  69 S7        29.94F
FISHERS *+     CLOUDY    79  70  73 CALM      29.93
FRANKFORT +    CLOUDY    80  68  68 NW7       29.94F
GREENWOOD *+   MOSUNNY   80  70  70 W3        29.95F
INDIANAPOLIS   PTSUNNY   78  68  71 SW5       29.92F
-EAGLE CREEK   MOSUNNY   78  65  63 VRB5      29.92F
KOKOMO +       PTSUNNY   77  67  71 SW9       29.93F
MT COMFORT *+    N/A    N/A N/A N/A MISG        N/A
SHELBYVILLE    CLOUDY    79  65  62 VRB5      29.93F
ZIONSVILLE +   MOSUNNY   76  67  75 S6        29.94F

$$

INZ033-034-041-042-049-050-058-059-192000-
EAST CENTRAL INDIANA

CITY           SKY/WX    TMP DP  RH WIND       PRES   REMARKS
MUNCIE         CLOUDY    77  66  68 VRB5      29.94F
RICHMOND +     LGT RAIN  70  66  88 SW6       29.98F

$$

INZ060-061-067>069-081>083-085>088-192000-
SOUTHWEST INDIANA

CITY           SKY/WX    TMP DP  RH WIND       PRES   REMARKS
EVANSVILLE     PTSUNNY   80  70  71 VRB3      29.93F
HUNTINGBURG +    N/A    N/A N/A N/A MISG        N/A
WASHINGTON +   PTSUNNY   82  64  54 CALM      29.92F

$$

INZ062-063-066-070>080-084-089>092-192000-
SOUTH CENTRAL AND SOUTHEAST INDIANA

CITY           SKY/WX    TMP DP  RH WIND       PRES   REMARKS
BEDFORD +      PTSUNNY   77  66  69 SW3       29.94F
BLOOMINGTON    MOSUNNY   80  65  59 SW7       29.93F
MADISON *+     MOSUNNY   77  64  65 S5        29.98F
NORTH VERNON + PTSUNNY   77  66  69 S6        29.96F
SEYMOUR +      PTSUNNY   79  66  65 S6        29.95F

$$





USA.gov is the U.S. government's official web portal to all federal, state and local government web resources and services.